Ontario, OR

6:35 AM MDT on October 22, 2019 (GMT -0600)
Ontario Municipal

Weather History for KONO - August, 2019

Change the Weather History Date:

Thursday, August 22, 2019

  Actual Average Record
Temperature  
Mean Temperature 77 °F 72 °F  
Max Temperature 89 °F 90 °F 105 °F (1961)
Min Temperature 64 °F 53 °F 41 °F (1966)
Degree Days  
Heating Degree Days 0 0  
Month to date heating degree days 0 0  
Since 1 June heating degree days 35 57  
Since 1 July heating degree days 0 5  
Cooling Degree Days 12 7  
Month to date cooling degree days 296 217  
Year to date cooling degree days 940 740  
Since 1 June cooling degree days 898 704  
Growing Degree Days 26 (Base 50)    
Moisture  
Dew Point 47 °F    
Average Humidity 41    
Maximum Humidity 63    
Minimum Humidity 18    
Precipitation  
Precipitation 0.00 in 0.01 in 0.28 in (2004)
Month to date precipitation 0.06 0.12  
Year to date precipitation 9.87 6.18  
Sea Level Pressure  
Sea Level Pressure 29.85 in    
Wind  
Wind Speed 13 mph (NW)    
Max Wind Speed 23 mph    
Max Gust Speed 30 mph    
Visibility 10 miles    
Events      
T = Trace of Precipitation, MM = Missing Value Source: NWS Daily Summary

Daily Weather History Graph

Daily Weather History Graph

Search for Another Location

Airport or City:

Astronomy

Aug. 22, 2019 Rise Set
Actual Time 6:59 AM MDT 8:41 PM MDT
Civil Twilight 6:29 AM MDT 9:11 PM MDT
Nautical Twilight 5:51 AM MDT 9:48 PM MDT
Astronomical Twilight 5:11 AM MDT 10:28 PM MDT
Moon No Moon Rise 1:53 PM MDT
Length of Visible Light 14h 42m
Length of Day
13h 41m
Waning Gibbous, 59% of the Moon is Illuminated
Aug 22
Waning Gibbous
Aug 23
Last Quarter
Aug 30
New
Sep 5
First Quarter
Sep 13
Full

Hourly Weather History & Observations

Time (MDT) Temp. Dew Point Humidity Pressure Visibility Wind Dir Wind Speed Gust Speed Precip Events Conditions
12:53 AM 75.0 °F 48.0 °F 38% 29.82 in 10.0 mi NW 8.1 mph - N/A   Clear
1:53 AM 73.9 °F 48.0 °F 40% 29.83 in 10.0 mi NNW 8.1 mph - N/A   Scattered Clouds
2:53 AM 72.0 °F 50.0 °F 46% 29.81 in 10.0 mi NNW 13.8 mph - N/A   Clear
3:53 AM 69.1 °F 50.0 °F 51% 29.81 in 10.0 mi NNW 15.0 mph - N/A   Clear
4:53 AM 68.0 °F 50.0 °F 52% 29.82 in 10.0 mi NW 17.3 mph - N/A   Clear
5:53 AM 66.9 °F 50.0 °F 54% 29.83 in 10.0 mi WSW 9.2 mph - N/A   Clear
6:53 AM 64.0 °F 50.0 °F 60% 29.86 in 10.0 mi SW 10.4 mph - N/A   Clear
7:53 AM 64.9 °F 51.1 °F 61% 29.88 in 10.0 mi West 11.5 mph - N/A   Clear
8:53 AM 71.1 °F 52.0 °F 51% 29.89 in 10.0 mi NW 15.0 mph - N/A   Clear
9:53 AM 73.9 °F 52.0 °F 46% 29.90 in 10.0 mi NW 15.0 mph 26.5 mph N/A   Clear
10:53 AM 78.1 °F 51.1 °F 39% 29.90 in 10.0 mi NW 17.3 mph - N/A   Clear
11:53 AM 81.0 °F 50.0 °F 34% 29.89 in 10.0 mi NW 11.5 mph - N/A   Clear
12:53 PM 81.0 °F 48.9 °F 33% 29.88 in 10.0 mi NNW 13.8 mph 19.6 mph N/A   Clear
1:53 PM 84.0 °F 48.0 °F 28% 29.87 in 10.0 mi WNW 15.0 mph 20.7 mph N/A   Clear
2:53 PM 84.9 °F 48.0 °F 28% 29.85 in 10.0 mi NW 11.5 mph 21.9 mph N/A   Clear
3:53 PM 86.0 °F 46.0 °F 25% 29.83 in 10.0 mi WNW 10.4 mph - N/A   Clear
4:53 PM 88.0 °F 45.0 °F 22% 29.82 in 10.0 mi WNW 15.0 mph - N/A   Clear
5:53 PM 88.0 °F 42.1 °F 20% 29.82 in 10.0 mi NW 13.8 mph - N/A   Clear
6:53 PM 87.1 °F 39.9 °F 19% 29.83 in 10.0 mi NNW 13.8 mph - N/A   Clear
7:53 PM 84.0 °F 42.1 °F 23% 29.83 in 10.0 mi North 9.2 mph - N/A   Clear
8:53 PM 77.0 °F 43.0 °F 30% 29.84 in 10.0 mi NNW 10.4 mph - N/A   Clear
9:53 PM 77.0 °F 41.0 °F 28% 29.86 in 10.0 mi NNW 12.7 mph - N/A   Clear
10:53 PM 75.0 °F 44.1 °F 33% 29.87 in 10.0 mi NNW 13.8 mph - N/A   Clear
11:53 PM 73.0 °F 44.1 °F 35% 29.88 in 10.0 mi North 10.4 mph - N/A   Clear